KLM1206 ENGM-EHAM

Flight info

Callsign KLM1206
Flight time N/A
Altitude 40000
Route VIPPA DCT KUGAL DCT EEL DCT BLUFA
Aircraft B737/M-SDE2E3FGHIRWXY/LB1

Departure

Time N/A
Airport Oslo-Gardermoen International Airport (ENGM)

Arrival

Time 2026-05-06 18:21
Airport Amsterdam Airport Schiphol (EHAM)
Time Latitude Longitude Altitude Speed Heading
2026-05-06 18:01 52.80932 6.27315 24646 ft 408 kts 235°
2026-05-06 18:01 52.79318 6.23462 23860 ft 406 kts 236°
2026-05-06 18:01 52.77737 6.19605 23010 ft 405 kts 236°
2026-05-06 18:02 52.76163 6.15770 22167 ft 401 kts 236°
2026-05-06 18:02 52.74598 6.11990 21403 ft 397 kts 236°
2026-05-06 18:02 52.73040 6.08261 20626 ft 393 kts 236°
2026-05-06 18:02 52.71509 6.04623 19876 ft 390 kts 236°
2026-05-06 18:03 52.69963 6.00970 19139 ft 386 kts 237°
2026-05-06 18:03 52.68441 5.97382 18413 ft 378 kts 236°
2026-05-06 18:03 52.66949 5.93874 17626 ft 370 kts 236°
2026-05-06 18:03 52.65480 5.90423 16882 ft 365 kts 237°
2026-05-06 18:04 52.64031 5.87026 16169 ft 360 kts 237°
2026-05-06 18:04 52.62596 5.83663 15474 ft 358 kts 236°
2026-05-06 18:04 52.61186 5.80361 14793 ft 347 kts 237°
2026-05-06 18:04 52.59817 5.77161 14135 ft 337 kts 237°
2026-05-06 18:05 52.58487 5.74058 13473 ft 327 kts 237°
2026-05-06 18:05 52.57195 5.71042 12807 ft 318 kts 236°
2026-05-06 18:05 52.55936 5.68108 12200 ft 310 kts 236°
2026-05-06 18:05 52.54709 5.65246 11598 ft 303 kts 237°
2026-05-06 18:06 52.53505 5.62449 11013 ft 297 kts 237°
2026-05-06 18:06 52.52323 5.59708 10453 ft 292 kts 236°
2026-05-06 18:06 52.51170 5.56980 10094 ft 292 kts 241°
2026-05-06 18:06 52.50344 5.53920 9988 ft 293 kts 253°
2026-05-06 18:07 52.49614 5.50827 9912 ft 290 kts 244°
2026-05-06 18:07 52.48598 5.47986 9910 ft 289 kts 239°
2026-05-06 18:07 52.47489 5.45214 9702 ft 295 kts 238°
2026-05-06 18:07 52.46360 5.42416 9415 ft 291 kts 238°
2026-05-06 18:08 52.45263 5.39666 9248 ft 286 kts 239°
2026-05-06 18:08 52.44189 5.36935 9134 ft 286 kts 238°
2026-05-06 18:08 52.43107 5.34159 9030 ft 292 kts 238°
2026-05-06 18:08 52.42010 5.31323 8919 ft 295 kts 239°
2026-05-06 18:09 52.40929 5.28525 8784 ft 293 kts 239°
2026-05-06 18:09 52.39848 5.25721 8685 ft 289 kts 239°
2026-05-06 18:09 52.38777 5.22945 8497 ft 288 kts 238°
2026-05-06 18:09 52.37696 5.20141 7876 ft 294 kts 238°
2026-05-06 18:10 52.36593 5.17282 7248 ft 300 kts 238°
2026-05-06 18:10 52.35470 5.14379 6668 ft 303 kts 238°
2026-05-06 18:10 52.34341 5.11464 6144 ft 304 kts 238°
2026-05-06 18:10 52.33465 5.08338 5538 ft 305 kts 261°
2026-05-06 18:11 52.33293 5.04940 5205 ft 297 kts 261°
2026-05-06 18:11 52.32542 5.01864 4927 ft 284 kts 240°
2026-05-06 18:11 52.31533 4.99197 4688 ft 269 kts 238°
2026-05-06 18:11 52.30544 4.96700 4466 ft 254 kts 238°
2026-05-06 18:12 52.29597 4.94345 4415 ft 242 kts 238°
2026-05-06 18:12 52.28679 4.92070 4416 ft 240 kts 237°
2026-05-06 18:12 52.27751 4.89754 4417 ft 246 kts 237°
2026-05-06 18:12 52.26819 4.87425 4198 ft 255 kts 237°
2026-05-06 18:13 52.25851 4.85005 3960 ft 251 kts 238°
2026-05-06 18:13 52.24897 4.82620 3690 ft 247 kts 237°
2026-05-06 18:13 52.23989 4.80343 3464 ft 244 kts 237°
2026-05-06 18:13 52.23072 4.78025 3267 ft 244 kts 237°
2026-05-06 18:14 52.22138 4.75668 3118 ft 242 kts 237°
2026-05-06 18:14 52.21220 4.73356 2958 ft 245 kts 237°
2026-05-06 18:14 52.20290 4.71017 2793 ft 247 kts 237°
2026-05-06 18:14 52.19358 4.68676 2630 ft 246 kts 237°
2026-05-06 18:15 52.18429 4.66361 2549 ft 242 kts 237°
2026-05-06 18:15 52.17510 4.64086 2445 ft 240 kts 237°
2026-05-06 18:15 52.16687 4.61726 2334 ft 238 kts 254°
2026-05-06 18:15 52.16619 4.59118 2253 ft 226 kts 288°
2026-05-06 18:16 52.17360 4.57074 2148 ft 199 kts 324°
2026-05-06 18:16 52.18434 4.55837 2049 ft 182 kts 332°
2026-05-06 18:16 52.19494 4.54783 2003 ft 175 kts 341°
2026-05-06 18:16 52.20632 4.54702 2012 ft 163 kts 24°
2026-05-06 18:17 52.21633 4.55572 2013 ft 165 kts 36°
2026-05-06 18:17 52.22425 4.56929 2016 ft 166 kts 52°
2026-05-06 18:17 52.23076 4.58485 2027 ft 166 kts 55°
2026-05-06 18:17 52.23697 4.60086 1931 ft 169 kts 57°
2026-05-06 18:18 52.24316 4.61708 1727 ft 165 kts 56°
2026-05-06 18:18 52.24889 4.63212 1505 ft 149 kts 57°
2026-05-06 18:18 52.25412 4.64582 1332 ft 142 kts 56°
2026-05-06 18:18 52.25927 4.65926 1124 ft 134 kts 55°
2026-05-06 18:19 52.26388 4.67131 946 ft 119 kts 56°
2026-05-06 18:19 52.26816 4.68247 794 ft 115 kts 54°
2026-05-06 18:19 52.27236 4.69347 632 ft 116 kts 57°
2026-05-06 18:19 52.27669 4.70480 473 ft 120 kts 54°
2026-05-06 18:20 52.28107 4.71630 307 ft 121 kts 57°
2026-05-06 18:20 52.28551 4.72788 150 ft 120 kts 57°
2026-05-06 18:20 52.28986 4.73923 14 ft 116 kts 57°
2026-05-06 18:20 52.29369 4.74916 -3 ft 88 kts 58°
2026-05-06 18:21 52.29623 4.75574 -2 ft 44 kts 57°
2026-05-06 18:21 52.29772 4.75793 -3 ft 27 kts 28°
2026-05-06 18:21 52.29896 4.75902 -2 ft 15 kts 27°
2026-05-06 18:21 52.29940 4.75938 -2 ft 2 kts 27°
2026-05-06 18:22 52.29957 4.75953 -2 ft 5 kts 27°
2026-05-06 18:22 52.30000 4.76013 -2 ft 9 kts 57°
2026-05-06 18:22 52.30042 4.76118 -2 ft 12 kts 57°
2026-05-06 18:22 52.30095 4.76256 -2 ft 18 kts 58°
2026-05-06 18:23 52.30144 4.76386 -2 ft 20 kts 57°
2026-05-06 18:23 52.30219 4.76579 -2 ft 20 kts 58°
2026-05-06 18:23 52.30290 4.76764 -2 ft 22 kts 58°
2026-05-06 18:23 52.30374 4.76983 -2 ft 25 kts 58°
2026-05-06 18:24 52.30468 4.77229 -2 ft 25 kts 58°
2026-05-06 18:24 52.30546 4.77431 -2 ft 18 kts 58°
2026-05-06 18:24 52.30610 4.77558 -2 ft 14 kts 32°
2026-05-06 18:24 52.30699 4.77590 -2 ft 13 kts
2026-05-06 18:25 52.30788 4.77599 -2 ft 13 kts
2026-05-06 18:25 52.30833 4.77498 -2 ft 12 kts 275°
2026-05-06 18:25 52.30838 4.77386 -2 ft 6 kts 275°
2026-05-06 18:25 52.30866 4.77364 -2 ft 4 kts
2026-05-06 18:26 52.30887 4.77366 -2 ft 0 kts
2026-05-06 18:26 52.30892 4.77366 -2 ft 2 kts
2026-05-06 18:26 52.30898 4.77367 -2 ft 0 kts